Weather in Svyatoslavka

Russia / Saratov Oblast     51°19′30″N   43°26′10″E
temp.,
°C
wind,
m/s
gust,
m/s
humid.,
%
clouds,
%
prec.,
mm/h
press.,
hPa
HPBL,
m
9 may, sun
sun901:00+13sse61385100 0.8 1009280
04:00+12sse41093100 2.3 1008198
07:00+13s3109492 1.8 1007341
10:00+14s5988100 2.5 1007624
13:00+8wnw6995100 1.3 1010405
16:00+7wnw5893100 5.3 1012442
19:00+7wnw4993100 2.7 1014555
22:00+6nnw6994100 4.6 1015477
10 may, mon
mon1001:00+5nnw61096100 3.3 1015482
04:00+6nnw51196100 7.7 1015524
07:00+6n71396100 3.2 1015559
10:00+8n71495100 6.0 1014452
13:00+11nne71392100 1.2 1014506
16:00+14nne81487100 3.4 1013501
19:00+15n91588100 0.9 1011364
22:00+13ne4893100 1.7 1014221
11 may, tue
tue1101:00+13e3692100 0.4 1014141
04:00+9se51194100 1.1 1016514
07:00+8se599011 3.7 1020700
10:00+10se687120 3.7 10221006
13:00+14se68565 0.0 10231368
16:00+16ese6754100 0.0 10231600
19:00+13e3773100 0.1 1024520
22:00+10ene478379 0.1 1024191
12 may, wed
wed1201:00+8ene239093 0.0 102461
04:00+8nne2289100 0.0 102343
07:00+9n3696100 1.3 1022208
10:00+11n3593100 1.4 1022213
13:00+14w118699 0.0 1022341
16:00+17w1176100 0.0 1021475
19:00+17e2379100 0.5 1020269
22:00+14e4892100 0.9 1020224
13 may, thu
thu1301:00+13e498972 0.0 1020235
04:00+13ene3791100 0.2 1019177
07:00+13e5108980 0.6 1018367
10:00+14ese478551 0.8 1019404
13:00+21sse566499 0.0 10181342
16:00+22ssw46564 0.2 10181680
19:00+21s24641 0.0 1018105
22:00+16se22745 0.0 101912